Wind_Speed
19 19 19 20 21 22 22 22 21 22 22 21 19 18 18 16 14 14 13 12 11 11 11 11 12 12 11 10 9 9 8 7 6 5 5 5 5 5 5 6 7 9 12 13
20 20 19 20 21 22 22 23 23 23 23 22 23 23 23 22 20 18 18 18 17 16 15 14 14 14 13 13 11 10 9 9 8 7 7 7 6 6 8 9 11 13 14 15
21 19 19 21 21 20 20 21 22 22 22 22 22 23 23 23 23 21 21 20 19 18 17 16 15 15 13 13 12 11 10 10 9 9 9 9 9 10 11 12 13 15 16 17
20 20 21 20 19 19 19 20 20 21 22 21 21 21 22 22 21 21 20 19 18 17 16 15 15 14 13 12 12 11 11 11 11 11 11 11 12 12 13 14 15 16 17 18
20 20 19 18 17 17 17 18 19 20 20 20 20 20 21 21 20 20 19 18 18 17 16 16 15 15 14 14 13 13 13 13 13 13 12 13 13 13 14 14 15 16 16 17
19 19 19 17 16 15 16 17 17 18 18 19 19 20 20 20 19 19 18 18 17 17 17 17 17 16 16 15 15 15 15 15 15 14 14 14 14 14 14 14 14 14 14 14
18 17 17 17 15 14 15 16 16 16 17 17 18 19 19 19 18 18 18 18 17 17 17 17 17 17 17 17 17 17 17 17 17 17 16 16 16 16 16 16 15 14 13 13
17 17 16 16 15 14 14 14 14 15 15 15 16 17 17 17 17 17 17 17 17 17 17 17 17 18 18 18 19 19 20 20 20 19 18 18 18 18 18 18 17 15 14 14
17 16 16 16 16 15 14 13 13 13 13 14 14 15 16 16 16 17 17 17 17 17 17 17 17 18 18 19 19 20 21 21 21 21 20 20 20 20 19 19 18 17 17 16
16 16 16 15 15 15 14 13 12 12 12 12 13 14 14 14 15 15 16 16 17 17 17 17 17 17 18 18 18 19 20 21 22 22 22 22 22 21 21 21 20 20 20 19
14 16 16 15 15 15 14 13 12 12 12 11 11 12 12 13 13 14 15 15 16 16 16 16 17 17 17 17 18 19 20 21 22 22 23 23 23 22 22 22 22 22 22 22
12 14 15 16 15 15 15 13 11 11 11 10 10 10 10 11 11 12 13 14 14 14 15 15 15 16 16 16 17 18 19 20 21 21 22 22 23 23 23 23 24 23 23 24
11 12 14 15 15 15 15 14 12 11 10 9 9 8 8 9 9 9 10 11 12 13 13 13 14 15 15 15 16 17 17 19 20 20 21 22 22 23 23 23 24 24 24 25
9 11 12 13 14 15 15 14 13 12 10 9 8 7 6 6 7 7 8 8 10 11 12 12 13 14 14 14 15 15 16 17 18 18 19 20 21 22 22 23 24 24 25 25
10 10 10 11 12 13 14 14 14 12 11 9 7 7 6 5 5 5 5 6 7 8 9 10 12 12 13 14 14 14 15 16 16 17 18 18 19 20 20 21 22 23 23 24
11 11 10 10 11 11 12 13 13 13 12 10 8 6 5 4 4 4 4 4 5 6 7 8 9 10 12 13 13 14 14 15 15 16 17 17 18 18 19 19 20 21 21 22
13 12 12 11 11 10 10 11 12 12 12 11 9 7 5 5 4 4 4 4 4 4 5 6 7 8 9 11 12 13 13 14 15 15 16 16 17 17 18 18 18 19 19 20
16 15 14 13 12 11 10 10 10 10 11 11 10 9 7 6 6 6 6 5 5 4 4 4 5 7 8 9 10 11 12 13 14 14 15 16 16 17 17 17 17 17 17 17
18 18 17 16 15 14 13 12 11 10 10 10 10 9 9 8 7 7 7 7 7 6 6 5 5 5 6 7 8 9 10 11 12 14 14 15 16 16 17 17 16 16 16 16
22 21 20 19 17 16 15 15 13 12 11 10 10 9 9 9 9 9 8 8 8 8 8 7 7 6 6 6 6 7 8 9 10 12 13 14 14 15 15 16 16 15 15 15
26 25 24 22 21 20 19 18 17 16 15 14 12 11 11 10 10 10 9 9 10 10 10 9 9 8 7 7 7 7 7 7 8 10 11 12 13 14 14 15 15 15 14 14
31 29 28 27 25 24 23 21 20 19 18 17 17 15 14 13 12 11 11 11 11 11 11 11 11 11 10 9 9 8 8 8 8 8 9 10 11 12 13 13 13 13 13 12
36 34 33 31 30 28 27 25 24 23 22 21 20 19 19 17 16 14 13 12 12 12 12 12 12 12 12 12 11 11 10 9 9 8 9 9 10 10 11 11 12 12 11 11
40 39 37 36 35 33 31 30 29 27 26 25 24 23 23 22 21 19 17 16 14 14 13 13 14 14 14 14 14 13 13 12 11 10 10 9 9 9 10 10 10 10 10 9
45 43 42 40 39 37 36 35 33 31 30 29 28 27 26 26 25 24 22 20 19 17 16 15 15 15 15 15 15 16 15 15 14 13 12 11 11 10 10 10 9 9 9 9
50 48 47 45 44 42 41 39 38 36 34 34 33 32 31 29 29 28 27 25 23 22 20 18 17 16 16 17 17 18 18 17 17 16 16 15 14 13 12 11 10 10 10 9
53 52 51 50 48 46 45 43 42 40 39 38 38 36 35 34 33 32 31 30 28 27 25 23 21 19 18 18 18 19 19 20 20 20 19 18 17 16 15 14 13 12 12 11
Wind_Direction
26 28 30 33 37 38 38 39 43 45 44 43 45 50 52 59 61 63 67 70 74 78 80 86 84 84 84 80 80 78 70 60 53 40 26 10 338 323 312 299 285 278 274 273
35 33 33 37 39 40 41 44 47 49 49 50 52 54 56 58 59 61 68 69 69 71 76 75 73 70 68 64 60 58 50 42 33 22 10 355 337 321 311 300 292 286 281 280
35 34 36 40 40 41 42 44 47 49 50 52 54 55 57 58 58 58 59 61 61 63 66 65 65 62 60 57 54 49 43 35 25 12 358 345 334 323 315 307 300 294 288 285
35 38 39 37 39 41 41 44 47 49 50 51 53 55 56 56 56 55 56 57 56 56 56 57 56 55 52 49 45 40 33 25 15 4 354 346 338 329 320 312 305 298 293 288
34 38 39 36 37 39 40 42 44 45 46 48 51 53 53 52 51 51 50 50 50 51 51 52 52 51 48 45 41 35 29 21 12 6 0 355 349 342 335 327 319 310 300 293
31 35 36 34 33 35 37 41 40 41 42 44 45 46 47 47 46 45 47 48 48 48 49 50 50 49 47 43 39 34 28 23 19 15 10 6 2 356 351 345 338 329 318 307
28 30 32 30 31 32 34 36 36 37 38 39 40 42 43 44 43 44 45 46 46 46 48 50 50 49 47 44 40 35 31 28 25 23 20 16 12 8 4 360 355 350 343 333
26 26 27 25 26 29 30 30 31 32 34 35 37 40 42 42 43 45 46 47 47 48 49 51 51 49 47 45 42 39 36 33 31 28 26 22 19 16 14 12 8 3 357 350
26 25 24 24 24 25 25 26 26 27 30 33 36 39 41 43 44 46 47 48 50 50 51 51 51 49 47 46 44 41 38 36 34 32 30 27 25 24 23 21 19 16 11 6
22 22 21 21 21 22 23 24 24 25 27 31 36 39 42 44 45 48 48 49 50 52 53 53 51 49 48 47 44 41 38 36 35 35 34 32 31 31 30 29 27 24 22 19
17 18 18 19 18 18 20 22 24 24 25 28 33 39 42 45 48 49 49 50 51 52 53 53 51 48 47 45 43 40 38 37 36 36 35 35 34 34 34 32 30 29 28 26
11 13 15 16 15 15 18 21 22 22 23 28 32 37 42 45 48 50 50 50 50 51 51 49 46 45 43 41 39 38 37 36 36 36 35 35 35 35 35 34 33 33 32 32
359 4 8 12 14 14 14 17 19 19 21 26 30 34 41 44 46 48 50 48 47 47 45 43 40 39 38 37 36 35 34 34 34 34 34 35 35 35 35 35 35 35 36 37
336 348 355 2 9 13 14 15 15 17 19 21 24 28 35 40 41 44 45 44 42 42 40 38 35 35 35 35 34 33 32 32 32 32 32 33 34 35 36 36 37 37 38 39
311 324 338 348 357 4 10 12 13 14 15 16 18 20 25 30 33 36 38 37 35 33 33 32 31 31 30 30 30 30 29 29 30 30 30 30 31 32 33 34 36 36 37 39
296 302 313 326 338 348 357 3 7 10 11 13 13 12 11 9 8 10 14 19 21 21 22 24 25 26 25 26 26 27 27 28 28 29 28 29 29 29 30 31 33 34 36 38
290 291 295 302 311 322 336 348 356 2 5 8 8 4 356 348 337 329 328 334 348 3 10 13 17 19 20 22 22 23 24 25 26 26 27 27 28 28 27 28 29 31 34 36
286 287 288 289 292 298 306 320 333 345 354 359 1 0 353 342 332 322 310 305 307 316 336 353 2 7 11 14 16 18 19 22 23 23 22 23 24 25 26 26 27 28 30 33
281 283 284 284 285 285 288 293 302 313 327 338 345 350 351 347 339 329 315 303 301 298 299 310 324 338 351 358 3 7 11 14 16 18 19 20 21 22 24 25 26 26 28 29
277 279 280 281 281 281 280 281 283 288 295 307 319 327 332 333 334 333 325 313 301 296 294 295 297 303 315 328 340 348 355 1 6 10 13 15 17 19 20 22 24 25 26 27
274 274 275 276 276 276 276 276 276 276 278 282 289 299 308 314 318 321 322 318 309 297 292 291 289 289 290 297 307 318 328 339 349 357 2 6 10 14 17 19 21 23 24 26
270 271 271 271 272 271 272 272 272 271 271 271 274 278 284 292 300 306 310 313 313 306 295 287 284 283 284 284 287 294 303 313 323 335 344 352 359 5 9 13 15 18 20 22
267 268 268 268 267 267 268 268 268 267 267 267 268 269 271 275 281 287 294 298 301 304 301 292 285 281 279 280 280 282 286 293 301 310 320 330 340 348 356 1 6 10 12 14
263 264 264 265 265 265 264 264 264 264 264 264 264 264 265 266 269 273 278 283 288 290 293 293 287 282 279 277 277 277 277 279 284 290 297 306 315 325 334 343 350 357 1 3
261 261 261 261 262 262 261 261 261 261 261 261 262 261 261 262 263 264 266 270 274 278 282 286 286 283 279 277 276 275 274 274 275 278 281 286 293 301 309 319 327 335 343 348
258 258 259 259 259 259 259 259 259 259 258 259 259 259 259 259 260 260 261 262 264 267 270 274 278 281 280 277 275 274 273 273 274 274 274 275 278 282 288 295 303 310 317 323
256 257 257 257 257 257 257 258 258 257 257 257 257 257 258 258 258 258 258 258 259 260 262 264 267 270 274 276 276 275 274 273 273 273 272 272 272 273 275 278 284 289 295 300
Height
5839 5835 5831 5827 5823 5819 5816 5812 5808 5805 5801 5798 5794 5791 5789 5786 5784 5783 5782 5781 5780 5780 5779 5780 5780 5781 5781 5782 5782 5782 5783 5783 5783 5783 5783 5783 5783 5783 5783 5783 5783 5784 5784 5784
5841 5838 5834 5830 5827 5823 5820 5817 5813 5810 5807 5803 5800 5797 5794 5792 5790 5788 5787 5786 5786 5785 5784 5784 5784 5784 5785 5785 5785 5785 5785 5784 5784 5784 5783 5783 5782 5782 5781 5781 5781 5780 5780 5780
5844 5841 5838 5834 5831 5828 5825 5822 5818 5815 5813 5809 5806 5804 5801 5799 5797 5795 5793 5792 5791 5790 5790 5789 5789 5789 5788 5788 5788 5787 5787 5786 5785 5784 5783 5782 5781 5780 5779 5778 5777 5776 5775 5775
5848 5845 5841 5841 5835 5832 5830 5827 5823 5820 5818 5815 5812 5809 5806 5804 5802 5801 5799 5798 5796 5795 5794 5793 5792 5792 5791 5790 5790 5789 5788 5786 5785 5784 5783 5781 5779 5777 5776 5774 5773 5771 5770 5769
5851 5847 5845 5843 5839 5837 5834 5831 5828 5825 5822 5820 5817 5814 5812 5809 5807 5805 5804 5802 5800 5799 5798 5796 5795 5794 5793 5792 5791 5790 5788 5787 5785 5783 5781 5779 5777 5775 5773 5771 5768 5766 5764 5763
5854 5851 5848 5847 5843 5840 5839 5835 5832 5829 5827 5824 5821 5819 5817 5814 5811 5809 5807 5806 5804 5803 5801 5800 5798 5797 5796 5794 5793 5791 5790 5788 5786 5783 5781 5778 5776 5773 5771 5768 5765 5762 5760 5758
5857 5854 5851 5849 5846 5844 5843 5840 5836 5833 5831 5828 5825 5823 5821 5818 5816 5814 5811 5810 5808 5806 5805 5803 5802 5800 5799 5797 5795 5793 5791 5789 5786 5784 5781 5778 5775 5772 5769 5766 5763 5760 5757 5755
5860 5857 5856 5851 5849 5847 5845 5842 5839 5837 5835 5832 5830 5827 5825 5822 5820 5818 5816 5814 5812 5810 5808 5807 5805 5803 5802 5800 5798 5796 5794 5791 5788 5785 5782 5779 5776 5772 5769 5765 5762 5759 5756 5753
5864 5862 5858 5854 5852 5849 5846 5844 5842 5840 5838 5835 5833 5831 5829 5826 5824 5822 5820 5818 5816 5814 5813 5811 5809 5807 5806 5804 5802 5800 5797 5794 5791 5788 5785 5781 5777 5774 5770 5767 5763 5760 5756 5753
5865 5862 5859 5857 5854 5851 5849 5846 5844 5842 5840 5838 5836 5834 5832 5830 5828 5826 5825 5823 5821 5819 5817 5815 5814 5812 5810 5808 5806 5803 5801 5798 5795 5791 5788 5784 5780 5776 5773 5769 5765 5761 5757 5754
5867 5865 5861 5859 5856 5853 5851 5848 5846 5844 5842 5840 5839 5837 5835 5834 5832 5830 5829 5827 5825 5823 5821 5820 5818 5816 5814 5812 5810 5807 5805 5802 5798 5795 5791 5788 5784 5780 5776 5772 5768 5764 5760 5756
5869 5867 5864 5861 5858 5855 5852 5850 5848 5846 5844 5842 5841 5839 5838 5837 5835 5834 5832 5831 5829 5827 5826 5824 5822 5820 5818 5815 5813 5811 5808 5805 5802 5799 5796 5792 5788 5784 5781 5777 5772 5768 5764 5759
5869 5867 5865 5863 5860 5857 5854 5852 5849 5847 5846 5844 5842 5841 5840 5839 5838 5836 5835 5834 5832 5831 5829 5827 5825 5823 5821 5819 5816 5814 5811 5809 5806 5803 5800 5796 5793 5789 5785 5781 5777 5773 5768 5764
5869 5868 5866 5864 5861 5859 5856 5853 5851 5849 5847 5845 5844 5842 5841 5840 5839 5838 5837 5836 5835 5833 5832 5830 5828 5826 5824 5822 5819 5817 5814 5812 5809 5806 5803 5800 5797 5793 5790 5786 5782 5778 5774 5770
5868 5867 5866 5864 5862 5860 5857 5855 5852 5850 5848 5846 5845 5843 5842 5841 5840 5839 5838 5837 5836 5835 5834 5832 5830 5828 5826 5824 5822 5820 5817 5815 5812 5809 5807 5804 5801 5797 5794 5791 5787 5784 5780 5776
5866 5865 5864 5863 5862 5860 5858 5856 5854 5851 5849 5847 5845 5844 5843 5842 5841 5840 5839 5838 5837 5836 5835 5833 5832 5830 5828 5826 5824 5822 5820 5817 5815 5812 5810 5807 5804 5801 5798 5795 5792 5788 5785 5782
5863 5862 5862 5861 5860 5859 5858 5856 5854 5852 5850 5848 5846 5845 5843 5842 5841 5840 5839 5838 5837 5836 5835 5834 5833 5831 5830 5828 5826 5824 5822 5820 5817 5815 5812 5810 5807 5804 5801 5798 5795 5793 5790 5787
5859 5859 5858 5858 5858 5857 5856 5855 5854 5852 5851 5849 5847 5845 5843 5842 5841 5839 5838 5838 5837 5836 5835 5834 5833 5832 5831 5829 5828 5826 5824 5822 5820 5817 5815 5812 5809 5807 5804 5801 5799 5796 5793 5791
5855 5855 5854 5854 5854 5853 5853 5852 5852 5851 5850 5848 5847 5845 5843 5842 5840 5839 5838 5837 5836 5835 5834 5834 5833 5832 5831 5829 5828 5827 5825 5824 5822 5819 5817 5814 5812 5809 5807 5804 5801 5799 5797 5794
5849 5850 5849 5849 5849 5849 5849 5849 5848 5848 5847 5847 5845 5844 5843 5841 5840 5838 5837 5836 5835 5834 5833 5832 5831 5831 5830 5829 5828 5827 5826 5824 5823 5821 5819 5816 5814 5811 5809 5806 5804 5802 5799 5797
5843 5843 5844 5844 5844 5844 5844 5844 5844 5844 5844 5843 5843 5842 5841 5840 5838 5837 5836 5834 5833 5832 5831 5830 5830 5829 5828 5827 5827 5826 5825 5824 5823 5821 5820 5818 5815 5813 5811 5809 5806 5804 5802 5800
5835 5836 5836 5837 5837 5837 5837 5838 5838 5838 5838 5838 5838 5838 5838 5837 5836 5835 5834 5832 5831 5829 5828 5828 5827 5826 5826 5825 5825 5824 5823 5823 5822 5821 5819 5818 5816 5814 5812 5810 5808 5806 5804 5802
5825 5826 5827 5828 5829 5829 5830 5831 5831 5831 5832 5832 5832 5833 5833 5832 5832 5831 5831 5830 5828 5827 5826 5825 5824 5823 5823 5823 5822 5822 5821 5821 5820 5819 5818 5817 5816 5814 5813 5811 5809 5807 5805 5803
5814 5816 5817 5818 5819 5820 5821 5822 5822 5823 5824 5825 5825 5826 5826 5826 5826 5826 5826 5825 5824 5824 5823 5822 5821 5820 5819 5819 5819 5818 5818 5818 5817 5817 5816 5815 5814 5813 5812 5811 5809 5808 5806 5804
5801 5803 5805 5807 5808 5810 5811 5812 5813 5814 5815 5816 5817 5817 5818 5819 5819 5820 5820 5820 5819 5819 5818 5817 5817 5816 5815 5815 5815 5814 5814 5814 5813 5813 5813 5812 5812 5811 5811 5810 5808 5807 5806 5804
5786 5789 5791 5793 5795 5797 5799 5800 5802 5804 5805 5806 5807 5808 5809 5810 5810 5811 5812 5812 5813 5813 5813 5812 5812 5811 5811 5810 5810 5809 5809 5809 5809 5809 5808 5808 5808 5808 5808 5807 5806 5805 5804 5803
5771 5773 5776 5779 5781 5783 5785 5787 5789 5791 5793 5794 5796 5797 5798 5800 5801 5802 5802 5803 5804 5805 5805 5805 5806 5805 5805 5805 5804 5804 5804 5803 5803 5803 5803 5803 5803 5803 5803 5803 5803 5802 5802 5801